Location: Taupo
(38.6830°S, 176.0830°E)
Time: 17:17:09
(UTC+13:00)

USA 238 DEB - Pass Details

Date: 24 January 2019
Orbit: 1027 x 1185 km, 63.4° (Epoch: 07 October)

Event Time Altitude Azimuth Distance (km) Brightness Sun altitude
Rises 22:15:10 0° 349° (N) 4,061 6.4 -16.6°
Reaches altitude 10° 22:18:01 10° 355° (N) 3,101 5.8 -17.0°
Maximum altitude 22:25:03 46° 65° (ENE) 1,528 4.1 -18.0°
Drops below altitude 10° 22:31:59 10° 135° (SE) 3,062 6.1 -19.0°
Sets 22:34:46 0° 141° (SE) 4,007 6.8 -19.3°
